User: anonymous   Login
Location: Pallagorio
(39.3000°N, 16.9000°E)
Time: 06:03:04
(UTC+00:00)
Language:

Cosmos 1092 Rocket - Orbit

View from above orbital plane
View from above orbital plane
View from above satellite
View from above satellite

Ground track
Ground track

The orbit data is extracted from the following two-line orbital elements,

1 11327U 79030B   21112.63129564 -.00000010  00000-0 -25901-4 0  9990
2 11327  82.9488 332.3519 0027145 202.9796 211.1563 13.76961155112338
Epoch (UTC): 22 April 2021 15:09:03
Eccentricity: 0.0027145
inclination: 82.9488°
perigee height: 955 km
apogee height: 994 km
right ascension of ascending node: 332.3519°
argument of perigee: 202.9796°
revolutions per day: 13.76961155
mean anomaly at epoch: 211.1563°
orbit number at epoch: 11233

The dashed part of the orbit path shows where the satellite is in the earth's shadow,  

DLR